This demonstration page uses our WeatherBlox Daily Observations layout. Learn more.

Left ArrowRight Arrow

53.62937, 11.41316

Hourly Observations for August 27, 2021

Temp ( °F °C ) Dew Point ( °F °C ) Humidity (%) Winds ( mph kmh ) Pressure ( in mb ) Visibility ( mi km ) Precip ( " mm )
7:50 am 07:50 Mostly Cloudy with Showers Nearby 57 14 55 13 94 94 NNW 6 9 29.83 1010 30 48 N/A
8:20 am 08:20 Mostly Cloudy with Showers Nearby 57 14 57 14 100 100 N 7 11 29.83 1010 30 48 N/A
8:50 am 08:50 Mostly Cloudy with Showers Nearby 59 15 57 14 94 94 N 10 17 29.85 1011 30 48 N/A
9:20 am 09:20 Mostly Cloudy with Showers Nearby 61 16 57 14 88 88 N 12 19 29.85 1011 30 48 N/A
9:50 am 09:50 Mostly Cloudy 61 16 55 13 83 83 N 13 20 29.85 1011 30 48 N/A
10:20 am 10:20 Mostly Cloudy 61 16 55 13 83 83 N 12 19 29.85 1011 30 48 N/A
10:50 am 10:50 Mostly Cloudy 63 17 57 14 83 83 NNE 10 17 29.85 1011 30 48 N/A
11:20 am 11:20 Mostly Cloudy 63 17 55 13 77 77 NNE 14 22 29.88 1012 30 48 N/A
11:50 am 11:50 Partly Cloudy 63 17 55 13 77 77 NNE 13 20 29.88 1012 30 48 N/A
12:20 pm 12:20 Mostly Cloudy 63 17 54 12 73 73 NE 17 28 29.88 1012 30 48 N/A
12:50 pm 12:50 Partly Cloudy 63 17 54 12 73 73 NE 14 22 29.88 1012 30 48 N/A
1:20 pm 13:20 Mostly Sunny 64 18 52 11 64 64 NE 16 26 29.91 1013 30 48 N/A
1:50 pm 13:50 Mostly Sunny 64 18 52 11 64 64 NE 17 28 29.91 1013 30 48 N/A
2:20 pm 14:20 Mostly Sunny 64 18 54 12 68 68 NNE 16 26 29.91 1013 30 48 N/A
2:50 pm 14:50 Mostly Sunny 66 19 54 12 64 64 NNE 14 22 29.91 1013 30 48 N/A
3:20 pm 15:20 Mostly Sunny 64 18 52 11 64 64 NE 15 24 29.91 1013 30 48 N/A
3:50 pm 15:50 Mostly Sunny 64 18 52 11 64 64 NNE 15 24 29.91 1013 30 48 N/A
4:20 pm 16:20 Mostly Sunny 64 18 54 12 68 68 NNE 15 24 29.94 1014 30 48 N/A
4:50 pm 16:50 Mostly Sunny 64 18 54 12 68 68 NNE 15 24 29.94 1014 30 48 N/A
5:20 pm 17:20 Mostly Sunny 64 18 52 11 64 64 NNE 13 20 29.94 1014 30 48 N/A
5:50 pm 17:50 Mostly Sunny 63 17 50 10 64 64 NNE 15 24 29.94 1014 30 48 N/A
6:20 pm 18:20 Mostly Sunny 63 17 52 11 68 68 NE 10 17 29.97 1015 30 48 N/A
6:50 pm 18:50 Mostly Sunny 63 17 52 11 68 68 NNE 12 19 29.97 1015 7 11 N/A
7:20 pm 19:20 Mostly Sunny 61 16 52 11 72 72 NNE 8 13 29.97 1015 7 11 N/A
7:50 pm 19:50 Mostly Sunny 61 16 50 10 68 68 NNE 6 9 29.97 1015 7 11 N/A
8:20 pm 20:20 Mostly Clear 59 15 52 11 77 77 N 5 7 29.97 1015 7 11 N/A
8:50 pm 20:50 Mostly Clear 59 15 54 12 82 82 NNW 3 6 29.97 1015 7 11 N/A
9:20 pm 21:20 Mostly Clear 57 14 54 12 88 88 NNW 2 4 30.00 1016 30 48 N/A
9:50 pm 21:50 Mostly Clear 57 14 54 12 88 88 VRB 2 4 30.00 1016 30 48 N/A

Powered by AerisWeather